WE0DX-1 Weather Reports


time (UTC)temp
C
wind
direction
speed
KPH
gust
KPH
rain 1hr
cm
rain 24hr
cm
rain mn
cm
humidity
%
barometer
mb
20260507211015 20 242 4.8 8.0 0.00 0.00 0.00 46 1010.7
20260507210513 20 215 8.0 11.3 0.00 0.00 0.00 46 1010.8
20260507210010 20 207 1.6 8.0 0.00 0.00 0.00 47 1010.9
20260507205506 20 184 3.2 8.0 0.00 0.00 0.00 45 1010.8
20260507205002 20 193 3.2 8.0 0.00 0.00 0.00 46 1011.0
20260507204459 20 231 8.0 12.9 0.00 0.00 0.00 45 1011.5
20260507203957 20 211 3.2 8.0 0.00 0.00 0.00 47 1011.3
20260507203454 20 153 4.8 9.7 0.00 0.00 0.00 46 1011.4
20260507202950 20 219 4.8 12.9 0.00 0.00 0.00 46 1011.5
20260507202447 20 216 4.8 9.7 0.00 0.00 0.00 46 1011.6
20260507201943 20 148 1.6 9.7 0.00 0.00 0.00 49 1011.5
20260507201438 20 214 3.2 8.0 0.00 0.00 0.00 49 1011.5
20260507200935 19 267 4.8 8.0 0.00 0.00 0.00 48 1011.8
20260507200431 18 208 4.8 9.7 0.00 0.00 0.00 49 1011.8
20260507195927 19 195 3.2 8.0 0.00 0.00 0.00 48 1011.8
20260507195425 19 197 1.6 12.9 0.00 0.00 0.00 48 1012.0
20260507194922 19 265 4.8 8.0 0.00 0.00 0.00 48 1012.2
20260507194418 19 233 3.2 9.7 0.00 0.00 0.00 49 1012.1
20260507193915 19 224 1.6 8.0 0.00 0.00 0.00 49 1012.3
20260507193412 18 274 3.2 11.3 0.00 0.00 0.00 50 1012.4
20260507192908 18 221 4.8 8.0 0.00 0.00 0.00 49 1012.5
20260507192404 19 224 6.4 11.3 0.00 0.00 0.00 49 1012.5
20260507191901 18 210 3.2 4.8 0.00 0.00 0.00 49 1012.3
20260507191357 18 267 1.6 8.0 0.00 0.00 0.00 51 1012.4
20260507190854 18 252 3.2 4.8 0.00 0.00 0.00 51 1012.4
20260507190352 18 138 4.8 11.3 0.00 0.00 0.00 51 1012.5
20260507185851 18 217 3.2 8.0 0.00 0.00 0.00 50 1012.8
20260507185348 18 249 9.7 14.5 0.00 0.00 0.00 50 1012.7
20260507184844 17 178 1.6 11.3 0.00 0.00 0.00 49 1013.0
20260507184342 17 266 4.8 8.0 0.00 0.00 0.00 52 1013.0
20260507183839 18 208 4.8 9.7 0.00 0.00 0.00 51 1013.1
20260507183336 18 234 4.8 8.0 0.00 0.00 0.00 50 1013.2
20260507182834 17 226 1.6 11.3 0.00 0.00 0.00 51 1013.1
20260507182329 18 266 11.3 11.3 0.00 0.00 0.00 50 1013.1
20260507181826 18 225 8.0 12.9 0.00 0.00 0.00 50 1013.3
20260507181321 18 226 4.8 8.0 0.00 0.00 0.00 50 1013.4
20260507180819 17 262 4.8 11.3 0.00 0.00 0.00 50 1013.5
20260507180316 17 184 3.2 11.3 0.00 0.00 0.00 52 1013.6
20260507175811 17 252 4.8 9.7 0.00 0.00 0.00 52 1013.6
20260507175308 16 256 4.8 9.7 0.00 0.00 0.00 54 1013.9
20260507174805 17 188 3.2 8.0 0.00 0.00 0.00 51 1013.6
20260507174303 17 258 1.6 4.8 0.00 0.00 0.00 53 1013.8
20260507173801 17 206 8.0 11.3 0.00 0.00 0.00 52 1013.8
20260507173258 17 348 4.8 8.0 0.00 0.00 0.00 52 1014.0
20260507172754 17 233 4.8 9.7 0.00 0.00 0.00 51 1013.9
20260507172251 17 260 8.0 11.3 0.00 0.00 0.00 51 1014.1
20260507171746 16 218 3.2 4.8 0.00 0.00 0.00 53 1014.1
20260507171243 17 239 1.6 4.8 0.00 0.00 0.00 53 1014.3
20260507170740 16 224 6.4 12.9 0.00 0.00 0.00 53 1013.9
20260507170237 16 237 4.8 9.7 0.00 0.00 0.00 53 1014.2
20260507165732 16 231 3.2 12.9 0.00 0.00 0.00 53 1014.5
20260507165229 16 269 3.2 8.0 0.00 0.00 0.00 53 1014.5
20260507164725 16 206 6.4 9.7 0.00 0.00 0.00 53 1014.6
20260507164223 16 236 6.4 9.7 0.00 0.00 0.00 53 1014.7
20260507163720 16 255 8.0 9.7 0.00 0.00 0.00 53 1014.8
20260507163218 16 190 3.2 9.7 0.00 0.00 0.00 53 1014.6
20260507162713 16 298 4.8 8.0 0.00 0.00 0.00 54 1014.7
20260507162209 16 280 3.2 9.7 0.00 0.00 0.00 55 1014.8
20260507161706 16 246 4.8 9.7 0.00 0.00 0.00 56 1014.9
20260507161203 15 212 1.6 4.8 0.00 0.00 0.00 58 1015.0
20260507160659 16 171 4.8 9.7 0.00 0.00 0.00 55 1015.0
20260507160156 15 248 4.8 9.7 0.00 0.00 0.00 56 1014.9
20260507155651 15 271 8.0 11.3 0.00 0.00 0.00 56 1014.9
20260507155148 15 225 4.8 8.0 0.00 0.00 0.00 59 1014.8
20260507154644 15 247 3.2 14.5 0.00 0.00 0.00 59 1015.0
20260507154143 15 271 8.0 11.3 0.00 0.00 0.00 58 1015.1
20260507153639 15 165 6.4 9.7 0.00 0.00 0.00 57 1015.1
20260507153135 15 193 6.4 9.7 0.00 0.00 0.00 59 1015.1
20260507152632 15 219 6.4 11.3 0.00 0.00 0.00 59 1015.1
20260507152127 15 213 4.8 9.7 0.00 0.00 0.00 59 1015.2
20260507151624 15 194 3.2 8.0 0.00 0.00 0.00 61 1015.2
20260507151121 15 194 4.8 8.0 0.00 0.00 0.00 62 1015.4
20260507150618 14 201 4.8 8.0 0.00 0.00 0.00 60 1015.2
20260507150114 14 206 3.2 4.8 0.00 0.00 0.00 61 1015.5
20260507145609 14 265 6.4 8.0 0.00 0.00 0.00 60 1015.5
20260507145108 14 246 4.8 9.7 0.00 0.00 0.00 60 1015.7
20260507144603 14 156 0.0 4.8 0.00 0.00 0.00 61 1015.5
20260507144102 13 228 4.8 8.0 0.00 0.00 0.00 62 1015.6
20260507143558 14 242 4.8 8.0 0.00 0.00 0.00 60 1015.7
20260507143056 14 279 1.6 3.2 0.00 0.00 0.00 60 1015.5
20260507142555 13 219 3.2 4.8 0.00 0.00 0.00 61 1015.6
20260507142053 13 233 6.4 8.0 0.00 0.00 0.00 60 1015.5
20260507141549 13 240 6.4 8.0 0.00 0.00 0.00 61 1015.5
20260507141046 13 122 1.6 3.2 0.00 0.00 0.00 62 1015.8
20260507140542 13 47 0.0 0.0 0.00 0.00 0.00 64 1015.6
20260507140040 12 215 1.6 3.2 0.00 0.00 0.00 65 1015.6
20260507135537 12 230 4.8 8.0 0.00 0.00 0.00 64 1015.6
20260507135034 12 154 3.2 3.2 0.00 0.00 0.00 66 1015.5
20260507134530 12 212 3.2 3.2 0.00 0.00 0.00 67 1015.5
20260507134026 12 203 3.2 4.8 0.00 0.00 0.00 69 1015.6
20260507133523 12 158 1.6 1.6 0.00 0.00 0.00 67 1015.7
20260507133021 11 274 0.0 3.2 0.00 0.00 0.00 69 1015.6
20260507132517 11 246 3.2 4.8 0.00 0.00 0.00 71 1015.7
20260507132013 11 131 1.6 3.2 0.00 0.00 0.00 72 1015.6
20260507131510 11 179 3.2 3.2 0.00 0.00 0.00 73 1015.7
20260507131008 11 122 0.0 0.0 0.00 0.00 0.00 72 1015.9
20260507130504 10 113 0.0 0.0 0.00 0.00 0.00 73 1015.8
20260507130003 10 114 0.0 0.0 0.00 0.00 0.00 73 1015.8
20260507125501 10 168 1.6 3.2 0.00 0.00 0.00 74 1015.8
20260507124958 10 116 0.0 0.0 0.00 0.00 0.00 75 1016.0
20260507124454 10 99 0.0 0.0 0.00 0.00 0.00 75 1016.0
20260507123952 10 160 1.6 3.2 0.00 0.00 0.00 75 1016.0
20260507123450 9 177 0.0 0.0 0.00 0.00 0.00 75 1015.9
20260507122946 9 94 0.0 0.0 0.00 0.00 0.00 75 1015.9
20260507122441 9 106 0.0 0.0 0.00 0.00 0.00 75 1016.0
20260507121937 9 85 0.0 0.0 0.00 0.00 0.00 74 1015.9
20260507121433 8 94 0.0 0.0 0.00 0.00 0.00 75 1015.8
20260507120930 8 88 0.0 0.0 0.00 0.00 0.00 75 1016.0
20260507120426 8 82 0.0 0.0 0.00 0.00 0.00 76 1015.7
20260507115922 8 94 0.0 0.0 0.00 0.00 0.00 77 1015.9
20260507115419 7 97 0.0 0.0 0.00 0.00 0.00 79 1015.9
20260507114914 7 87 0.0 0.0 0.00 0.00 0.00 80 1015.8
20260507114412 6 77 0.0 0.0 0.00 0.00 0.00 82 1015.9
20260507113909 6 45 0.0 0.0 0.00 0.00 0.00 83 1015.7
20260507113406 6 45 0.0 0.0 0.00 0.00 0.00 83 1015.9
20260507112903 6 45 0.0 0.0 0.00 0.00 0.00 83 1015.9
20260507112400 6 45 0.0 0.0 0.00 0.00 0.00 84 1015.9
20260507111858 6 45 0.0 0.0 0.00 0.00 0.00 85 1015.8
20260507111354 6 45 0.0 0.0 0.00 0.00 0.00 85 1015.6
20260507110850 6 45 0.0 0.0 0.00 0.00 0.00 84 1015.7
20260507110347 6 45 0.0 0.0 0.00 0.00 0.00 84 1015.8
20260507105844 6 45 0.0 0.0 0.00 0.00 0.00 83 1015.5
20260507105340 6 45 0.0 0.0 0.00 0.00 0.00 84 1015.8
20260507104837 6 45 0.0 0.0 0.00 0.00 0.00 83 1015.6
20260507104334 6 45 0.0 0.0 0.00 0.00 0.00 84 1015.6
20260507103830 5 45 0.0 0.0 0.00 0.00 0.00 83 1015.7
20260507103327 6 45 0.0 0.0 0.00 0.00 0.00 82 1015.7
20260507102823 6 45 0.0 0.0 0.00 0.00 0.00 81 1015.7
20260507102320 6 45 0.0 0.0 0.00 0.00 0.00 81 1015.6
20260507101816 6 45 0.0 0.0 0.00 0.00 0.00 80 1015.6
20260507101316 6 45 0.0 0.0 0.00 0.00 0.00 79 1015.9
20260507100813 6 45 0.0 0.0 0.00 0.00 0.00 78 1015.9
20260507100311 6 45 0.0 0.0 0.00 0.00 0.00 77 1015.7
20260507095809 6 45 0.0 0.0 0.00 0.00 0.00 77 1015.7
20260507095306 6 45 0.0 0.0 0.00 0.00 0.00 77 1016.0
20260507094802 6 45 0.0 0.0 0.00 0.00 0.00 76 1015.9
20260507094259 6 45 0.0 0.0 0.00 0.00 0.00 76 1015.9
20260507093756 6 45 0.0 0.0 0.00 0.00 0.00 77 1016.0
20260507093255 6 45 0.0 0.0 0.00 0.00 0.00 77 1016.0
20260507092752 6 45 0.0 0.0 0.00 0.00 0.00 76 1016.0
20260507092248 6 45 0.0 0.0 0.00 0.00 0.00 77 1016.3
20260507091745 6 45 0.0 0.0 0.00 0.00 0.00 76 1016.1
20260507091241 6 45 0.0 0.0 0.00 0.00 0.00 75 1016.3
20260507090736 6 45 0.0 0.0 0.00 0.00 0.00 74 1015.9
20260507090233 6 45 0.0 0.0 0.00 0.00 0.00 73 1015.9
20260507085730 7 45 0.0 0.0 0.00 0.00 0.00 73 1015.9
20260507085227 7 45 0.0 0.0 0.00 0.00 0.00 73 1016.1
20260507084724 7 45 0.0 0.0 0.00 0.00 0.00 72 1016.3
20260507084221 7 45 0.0 0.0 0.00 0.00 0.00 72 1016.0
20260507083719 7 45 0.0 0.0 0.00 0.00 0.00 72 1016.3
20260507083215 7 45 0.0 0.0 0.00 0.00 0.00 73 1016.1
20260507082711 7 45 0.0 0.0 0.00 0.00 0.00 71 1016.4
20260507082207 6 45 0.0 0.0 0.00 0.00 0.00 71 1016.3
20260507081704 7 45 0.0 0.0 0.00 0.00 0.00 71 1016.4
20260507081200 6 45 0.0 0.0 0.00 0.00 0.00 71 1016.1
20260507080657 7 45 0.0 0.0 0.00 0.00 0.00 71 1016.3
20260507080153 7 45 0.0 0.0 0.00 0.00 0.00 71 1016.4
20260507075648 7 45 0.0 0.0 0.00 0.00 0.00 71 1016.1
20260507075144 7 45 0.0 0.0 0.00 0.00 0.00 71 1016.3
20260507074641 7 45 0.0 0.0 0.00 0.00 0.00 71 1016.3
20260507074140 7 45 0.0 0.0 0.00 0.00 0.00 71 1016.1
20260507073636 7 45 0.0 0.0 0.00 0.00 0.00 71 1016.6
20260507073132 7 45 0.0 0.0 0.00 0.00 0.00 71 1016.6
20260507072630 7 45 0.0 0.0 0.00 0.00 0.00 71 1016.4
20260507072127 7 45 0.0 0.0 0.00 0.00 0.00 72 1016.3
20260507071624 7 45 0.0 0.0 0.00 0.00 0.00 71 1016.6
20260507071120 7 45 0.0 0.0 0.00 0.00 0.00 72 1016.7
20260507070618 7 45 0.0 0.0 0.00 0.00 0.00 72 1016.5
20260507070115 7 45 0.0 0.0 0.00 0.00 0.00 72 1016.9
20260507065611 7 45 0.0 0.0 0.00 0.00 0.00 70 1016.8
20260507065108 7 45 0.0 0.0 0.00 0.00 0.00 70 1016.8
20260507064606 7 45 0.0 0.0 0.00 0.00 0.00 71 1016.7
20260507064104 7 45 0.0 0.0 0.00 0.00 0.00 70 1016.8
20260507063601 8 45 0.0 0.0 0.00 0.00 0.00 69 1016.8
20260507063059 8 45 0.0 0.0 0.00 0.00 0.00 67 1017.1
20260507062555 8 45 0.0 0.0 0.00 0.00 0.00 63 1017.1
20260507062053 8 45 0.0 0.0 0.00 0.00 0.00 64 1016.8
20260507061550 8 45 0.0 0.0 0.00 0.00 0.00 70 1017.1
20260507061048 8 45 0.0 0.0 0.00 0.00 0.00 67 1016.7
20260507060546 8 45 0.0 0.0 0.00 0.00 0.00 67 1017.0
20260507060042 8 45 0.0 0.0 0.00 0.00 0.00 67 1017.0
20260507055537 9 45 0.0 0.0 0.00 0.00 0.00 66 1016.9
20260507055034 9 45 0.0 0.0 0.00 0.00 0.00 63 1017.0
20260507054530 9 45 0.0 0.0 0.00 0.00 0.00 60 1017.0
20260507054027 10 41 0.0 0.0 0.00 0.00 0.00 60 1017.0
20260507053525 10 41 0.0 0.0 0.00 0.00 0.00 59 1017.1
20260507053023 10 41 0.0 0.0 0.00 0.00 0.00 58 1017.0
20260507052521 10 41 0.0 0.0 0.00 0.00 0.00 56 1017.0
20260507052017 10 41 0.0 0.0 0.00 0.00 0.00 54 1016.7
20260507051515 10 41 0.0 0.0 0.00 0.00 0.00 54 1017.2
20260507051012 10 41 0.0 0.0 0.00 0.00 0.00 53 1016.9
20260507050508 10 41 0.0 0.0 0.00 0.00 0.00 52 1016.7
20260507050005 10 41 0.0 0.0 0.00 0.05 0.05 52 1016.8
20260507045501 10 41 0.0 0.0 0.00 0.05 0.05 51 1016.8
20260507044959 10 41 0.0 0.0 0.00 0.05 0.05 50 1016.9
20260507044455 10 41 0.0 0.0 0.00 0.05 0.05 49 1017.2
20260507043951 10 41 0.0 0.0 0.00 0.05 0.05 50 1016.9
20260507043448 10 41 0.0 0.0 0.00 0.05 0.05 52 1016.9
20260507042944 10 41 0.0 0.0 0.00 0.05 0.05 50 1016.9
20260507042441 10 41 0.0 0.0 0.00 0.05 0.05 50 1017.1
20260507041937 10 41 0.0 0.0 0.00 0.05 0.05 53 1017.0
20260507041434 10 41 0.0 0.0 0.00 0.05 0.05 52 1017.2
20260507040931 9 41 0.0 0.0 0.00 0.05 0.05 56 1017.0
20260507040432 10 41 0.0 0.0 0.00 0.05 0.05 66 1017.3
20260507035928 10 41 0.0 0.0 0.00 0.05 0.05 59 1017.3
20260507035424 10 41 0.0 0.0 0.00 0.05 0.05 58 1017.2
20260507034921 10 41 0.0 0.0 0.00 0.05 0.05 51 1017.1
20260507034418 10 41 0.0 0.0 0.00 0.05 0.05 55 1017.3
20260507033916 10 41 0.0 0.0 0.00 0.05 0.05 49 1017.2
20260507033414 10 41 0.0 0.0 0.00 0.05 0.05 44 1017.2
20260507032911 10 41 0.0 0.0 0.00 0.05 0.05 47 1017.1
20260507032408 10 41 0.0 0.0 0.00 0.05 0.05 47 1017.1
20260507031903 10 41 0.0 0.0 0.00 0.05 0.05 47 1017.2
20260507031400 10 41 0.0 0.0 0.00 0.05 0.05 47 1017.1
20260507030857 10 41 0.0 0.0 0.00 0.05 0.05 48 1017.2
20260507030354 10 41 0.0 0.0 0.00 0.05 0.05 49 1017.3
20260507025851 10 41 0.0 0.0 0.00 0.05 0.05 57 1017.2
20260507025349 10 41 0.0 0.0 0.00 0.05 0.05 59 1017.1
20260507024846 10 40 0.0 0.0 0.00 0.05 0.05 57 1017.0
20260507024343 10 48 0.0 0.0 0.00 0.05 0.05 55 1017.2
20260507023839 10 48 0.0 0.0 0.00 0.05 0.05 54 1017.0
20260507023336 10 48 0.0 0.0 0.00 0.05 0.05 53 1017.0
20260507022833 10 44 0.0 0.0 0.00 0.05 0.05 51 1016.9
20260507022330 10 44 0.0 0.0 0.00 0.05 0.05 49 1017.1
20260507021826 10 48 0.0 0.0 0.00 0.05 0.05 50 1016.8
20260507021321 10 48 0.0 0.0 0.00 0.05 0.05 47 1016.9
20260507020819 10 44 0.0 0.0 0.00 0.05 0.05 45 1016.8
20260507020316 10 48 0.0 0.0 0.00 0.05 0.05 45 1016.8
20260507015813 10 44 0.0 0.0 0.00 0.05 0.05 48 1016.5
20260507015311 11 44 0.0 0.0 0.00 0.05 0.05 50 1016.6
20260507014808 11 44 0.0 0.0 0.00 0.05 0.05 46 1016.7
20260507014304 11 44 0.0 0.0 0.00 0.05 0.05 43 1016.6
20260507013800 11 44 0.0 0.0 0.00 0.05 0.05 43 1016.6
20260507013258 12 44 0.0 0.0 0.00 0.05 0.05 43 1016.6
20260507012755 12 41 0.0 0.0 0.00 0.05 0.05 42 1016.5
20260507012250 12 41 0.0 0.0 0.00 0.05 0.05 45 1016.6
20260507011748 12 42 0.0 0.0 0.00 0.05 0.05 43 1016.5
20260507011244 12 41 0.0 0.0 0.00 0.05 0.05 42 1016.4
20260507010744 12 41 0.0 0.0 0.00 0.05 0.05 42 1016.4
20260507010240 13 41 0.0 0.0 0.00 0.05 0.05 41 1016.3
20260507005738 13 41 0.0 0.0 0.00 0.05 0.05 39 1016.4
20260507005234 13 41 0.0 0.0 0.00 0.05 0.05 39 1016.5
20260507004731 13 41 0.0 0.0 0.00 0.05 0.05 38 1016.4
20260507004229 13 40 0.0 0.0 0.00 0.05 0.05 36 1016.3
20260507003725 13 40 0.0 0.0 0.00 0.05 0.05 35 1016.6
20260507003220 14 39 0.0 0.0 0.00 0.05 0.05 36 1016.3
20260507002716 14 32 1.6 3.2 0.00 0.05 0.05 34 1016.0
20260507002212 14 37 0.0 1.6 0.00 0.05 0.05 36 1016.5
20260507001709 14 36 1.6 3.2 0.00 0.05 0.05 34 1016.1
20260507001207 14 37 0.0 1.6 0.00 0.05 0.05 34 1016.4
20260507000703 14 340 1.6 3.2 0.00 0.05 0.05 34 1016.3
20260507000158 14 343 3.2 4.8 0.00 0.05 0.05 33 1016.5
20260506235656 14 344 3.2 3.2 0.00 0.05 0.05 34 1016.5
20260506235151 15 315 3.2 3.2 0.00 0.05 0.05 34 1016.5
20260506234648 15 34 1.6 3.2 0.00 0.05 0.05 34 1016.5
20260506234145 15 46 0.0 1.6 0.00 0.05 0.05 34 1016.4
20260506233642 15 53 1.6 3.2 0.00 0.05 0.05 34 1016.5
20260506233139 15 33 1.6 3.2 0.00 0.05 0.05 34 1016.5
20260506232635 15 354 3.2 3.2 0.00 0.05 0.05 34 1016.4
20260506232131 15 21 1.6 3.2 0.00 0.05 0.05 34 1016.4
20260506231628 15 0 1.6 4.8 0.00 0.05 0.05 34 1016.5
20260506231127 15 17 1.6 1.6 0.00 0.05 0.05 34 1016.1
20260506230623 15 39 3.2 3.2 0.00 0.05 0.05 34 1016.6
20260506230120 15 48 1.6 3.2 0.00 0.05 0.05 34 1016.4
20260506225617 15 20 3.2 4.8 0.00 0.05 0.05 34 1016.1
20260506225113 15 323 3.2 4.8 0.00 0.05 0.05 34 1016.5
20260506224610 15 12 1.6 3.2 0.00 0.05 0.05 35 1016.5
20260506224106 15 21 3.2 3.2 0.00 0.05 0.05 34 1016.3
20260506223602 15 318 1.6 3.2 0.00 0.05 0.05 35 1016.5
20260506223059 15 52 0.0 3.2 0.00 0.05 0.05 33 1016.5
20260506222556 15 44 0.0 3.2 0.00 0.05 0.05 33 1016.5
20260506222052 15 31 1.6 3.2 0.00 0.05 0.05 34 1016.7
20260506221550 15 310 4.8 8.0 0.00 0.05 0.05 33 1016.6
20260506221048 15 15 1.6 3.2 0.00 0.05 0.05 34 1016.9
20260506220543 15 349 3.2 3.2 0.00 0.05 0.05 34 1016.4
20260506220039 15 325 3.2 8.0 0.00 0.05 0.05 34 1016.5
20260506215536 15 284 4.8 4.8 0.00 0.05 0.05 35 1016.5
20260506215032 15 2 1.6 3.2 0.00 0.05 0.05 34 1016.8
20260506214529 15 308 1.6 4.8 0.00 0.05 0.05 33 1016.8
20260506214026 15 10 1.6 9.7 0.00 0.05 0.05 34 1016.7
20260506213524 15 350 3.2 9.7 0.00 0.05 0.05 32 1017.0
20260506213021 15 34 3.2 9.7 0.00 0.05 0.05 33 1016.8
20260506212518 15 290 4.8 8.0 0.00 0.05 0.05 34 1016.9
20260506212013 15 2 4.8 8.0 0.00 0.05 0.05 34 1016.9
20260506211509 15 15 6.4 8.0 0.00 0.05 0.05 33 1017.0